Wetterdaten: Donnerstag, 01.04.2010
Datum Zeit Temp. A. Feuchte A. Luftdruck Regen Wind Richtung Richtung Sonnenschein UV Solar Windben
01.04.2010 00:00 5,1 C 79 % 1001,0 hPa 0,0 mm 1,6 km/h (1 Bft) S 180 0 min 0 UV-I 0 W/m 9,7 km/h (2 Bft)
01.04.2010 00:10 5,1 C 78 % 1001,0 hPa 0,0 mm 3,2 km/h (1 Bft) S-SW 202 0 min 0 UV-I 0 W/m 14,5 km/h (3 Bft)
01.04.2010 00:20 5,1 C 77 % 1001,1 hPa 0,0 mm 3,2 km/h (1 Bft) SW 225 0 min 0 UV-I 0 W/m 16,1 km/h (3 Bft)
01.04.2010 00:30 5,2 C 76 % 1001,0 hPa 0,0 mm 3,2 km/h (1 Bft) SW 225 0 min 0 UV-I 0 W/m 11,3 km/h (2 Bft)
01.04.2010 00:40 5,3 C 76 % 1001,1 hPa 0,0 mm 3,2 km/h (1 Bft) SW 225 0 min 0 UV-I 0 W/m 12,9 km/h (3 Bft)
01.04.2010 00:50 5,3 C 75 % 1001,0 hPa 0,0 mm 4,8 km/h (1 Bft) SW 225 0 min 0 UV-I 0 W/m 24,1 km/h (4 Bft)
01.04.2010 01:00 5,2 C 74 % 1001,1 hPa 0,0 mm 3,2 km/h (1 Bft) SW 225 0 min 0 UV-I 0 W/m 17,7 km/h (3 Bft)
01.04.2010 01:10 5,2 C 74 % 1001,1 hPa 0,0 mm 4,8 km/h (1 Bft) SW 225 0 min 0 UV-I 0 W/m 16,1 km/h (3 Bft)
01.04.2010 01:20 5,1 C 74 % 1001,1 hPa 0,0 mm 6,4 km/h (2 Bft) SW 225 0 min 0 UV-I 0 W/m 22,5 km/h (4 Bft)
01.04.2010 01:30 5,1 C 74 % 1001,1 hPa 0,0 mm 6,4 km/h (2 Bft) SW 225 0 min 0 UV-I 0 W/m 17,7 km/h (3 Bft)
01.04.2010 01:40 5,0 C 74 % 1001,3 hPa 0,0 mm 4,8 km/h (1 Bft) SW 225 0 min 0 UV-I 0 W/m 19,3 km/h (3 Bft)
01.04.2010 01:50 4,9 C 74 % 1001,2 hPa 0,0 mm 6,4 km/h (2 Bft) SW 225 0 min 0 UV-I 0 W/m 16,1 km/h (3 Bft)
01.04.2010 02:00 4,8 C 75 % 1001,0 hPa 0,0 mm 4,8 km/h (1 Bft) SW 225 0 min 0 UV-I 0 W/m 14,5 km/h (3 Bft)
01.04.2010 02:10 4,6 C 75 % 1000,9 hPa 0,0 mm 4,8 km/h (1 Bft) S-SW 202 0 min 0 UV-I 0 W/m 14,5 km/h (3 Bft)
01.04.2010 02:20 4,6 C 75 % 1000,9 hPa 0,0 mm 4,8 km/h (1 Bft) S-SW 202 0 min 0 UV-I 0 W/m 11,3 km/h (2 Bft)
01.04.2010 02:30 4,6 C 74 % 1001,0 hPa 0,0 mm 3,2 km/h (1 Bft) SW 225 0 min 0 UV-I 0 W/m 11,3 km/h (2 Bft)
01.04.2010 02:40 4,8 C 73 % 1000,7 hPa 0,0 mm 3,2 km/h (1 Bft) SW 225 0 min 0 UV-I 0 W/m 12,9 km/h (3 Bft)
01.04.2010 02:50 4,8 C 73 % 1000,5 hPa 0,0 mm 6,4 km/h (2 Bft) SW 225 0 min 0 UV-I 0 W/m 17,7 km/h (3 Bft)
01.04.2010 03:00 4,8 C 72 % 1000,5 hPa 0,0 mm 4,8 km/h (1 Bft) SW 225 0 min 0 UV-I 0 W/m 16,1 km/h (3 Bft)
01.04.2010 03:10 4,8 C 71 % 1000,4 hPa 0,0 mm 6,4 km/h (2 Bft) SW 225 0 min 0 UV-I 0 W/m 20,9 km/h (4 Bft)
01.04.2010 03:20 4,9 C 70 % 1000,5 hPa 0,0 mm 8,0 km/h (2 Bft) SW 225 0 min 0 UV-I 0 W/m 22,5 km/h (4 Bft)
01.04.2010 03:30 5,0 C 69 % 1000,4 hPa 0,0 mm 6,4 km/h (2 Bft) S-SW 202 0 min 0 UV-I 0 W/m 20,9 km/h (4 Bft)
01.04.2010 03:40 5,0 C 68 % 1000,4 hPa 0,0 mm 6,4 km/h (2 Bft) S-SW 202 0 min 0 UV-I 0 W/m 22,5 km/h (4 Bft)
01.04.2010 03:50 5,1 C 68 % 1000,4 hPa 0,0 mm 6,4 km/h (2 Bft) SW 225 0 min 0 UV-I 0 W/m 24,1 km/h (4 Bft)
01.04.2010 04:00 5,2 C 67 % 1000,4 hPa 0,0 mm 8,0 km/h (2 Bft) SW 225 0 min 0 UV-I 0 W/m 22,5 km/h (4 Bft)
01.04.2010 04:10 5,3 C 66 % 1000,5 hPa 0,0 mm 8,0 km/h (2 Bft) SW 225 0 min 0 UV-I 0 W/m 19,3 km/h (3 Bft)
01.04.2010 04:20 5,3 C 66 % 1000,4 hPa 0,0 mm 8,0 km/h (2 Bft) S-SW 202 0 min 0 UV-I 0 W/m 22,5 km/h (4 Bft)
01.04.2010 04:30 5,3 C 66 % 1000,6 hPa 0,0 mm 8,0 km/h (2 Bft) SW 225 0 min 0 UV-I 0 W/m 19,3 km/h (3 Bft)
01.04.2010 04:40 5,3 C 66 % 1000,9 hPa 0,0 mm 8,0 km/h (2 Bft) SW 225 0 min 0 UV-I 0 W/m 24,1 km/h (4 Bft)
01.04.2010 04:50 5,3 C 67 % 1001,0 hPa 0,0 mm 6,4 km/h (2 Bft) SW 225 0 min 0 UV-I 0 W/m 17,7 km/h (3 Bft)
01.04.2010 05:00 5,2 C 66 % 1001,1 hPa 0,0 mm 6,4 km/h (2 Bft) S-SW 202 0 min 0 UV-I 0 W/m 20,9 km/h (4 Bft)
01.04.2010 05:10 5,3 C 66 % 1001,2 hPa 0,0 mm 8,0 km/h (2 Bft) S-SW 202 0 min 0 UV-I 0 W/m 20,9 km/h (4 Bft)
01.04.2010 05:20 5,3 C 66 % 1002,1 hPa 0,0 mm 6,4 km/h (2 Bft) SW 225 0 min 0 UV-I 0 W/m 19,3 km/h (3 Bft)
01.04.2010 05:30 5,3 C 65 % 1002,2 hPa 0,0 mm 8,0 km/h (2 Bft) SW 225 0 min 0 UV-I 0 W/m 24,1 km/h (4 Bft)
01.04.2010 05:40 5,3 C 66 % 1002,3 hPa 0,0 mm 8,0 km/h (2 Bft) SW 225 0 min 0 UV-I 0 W/m 30,6 km/h (5 Bft)
01.04.2010 05:50 5,3 C 66 % 1002,4 hPa 0,0 mm 8,0 km/h (2 Bft) SW 225 0 min 0 UV-I 0 W/m 22,5 km/h (4 Bft)
01.04.2010 06:00 5,2 C 67 % 1002,6 hPa 0,0 mm 8,0 km/h (2 Bft) W-SW 247 0 min 0 UV-I 0 W/m 24,1 km/h (4 Bft)
01.04.2010 06:10 5,2 C 66 % 1002,7 hPa 0,0 mm 11,3 km/h (2 Bft) SW 225 0 min 0 UV-I 0 W/m 30,6 km/h (5 Bft)
01.04.2010 06:20 5,2 C 66 % 1002,8 hPa 0,0 mm 9,7 km/h (2 Bft) S-SW 202 0 min 0 UV-I 0 W/m 25,7 km/h (4 Bft)
01.04.2010 06:30 5,2 C 67 % 1002,9 hPa 0,0 mm 8,0 km/h (2 Bft) SW 225 0 min 0 UV-I 0 W/m 22,5 km/h (4 Bft)
01.04.2010 06:40 5,1 C 68 % 1002,9 hPa 0,0 mm 9,7 km/h (2 Bft) W-SW 247 0 min 0 UV-I 0 W/m 22,5 km/h (4 Bft)
01.04.2010 06:50 4,9 C 68 % 1002,9 hPa 0,0 mm 9,7 km/h (2 Bft) SW 225 0 min 0 UV-I 0 W/m 27,4 km/h (4 Bft)
01.04.2010 07:00 4,8 C 68 % 1003,0 hPa 0,0 mm 8,0 km/h (2 Bft) SW 225 0 min 0 UV-I 0 W/m 22,5 km/h (4 Bft)
01.04.2010 07:10 4,8 C 69 % 1003,1 hPa 0,0 mm 8,0 km/h (2 Bft) W-SW 247 0 min 0 UV-I 0 W/m 19,3 km/h (3 Bft)
01.04.2010 07:20 4,8 C 69 % 1003,1 hPa 0,0 mm 6,4 km/h (2 Bft) SW 225 0 min 0 UV-I 5 W/m 22,5 km/h (4 Bft)
01.04.2010 07:30 4,8 C 68 % 1003,2 hPa 0,0 mm 6,4 km/h (2 Bft) SW 225 0 min 0 UV-I 11 W/m 19,3 km/h (3 Bft)
01.04.2010 07:40 4,8 C 68 % 1003,2 hPa 0,0 mm 6,4 km/h (2 Bft) SW 225 0 min 0 UV-I 16 W/m 19,3 km/h (3 Bft)
01.04.2010 08:00 4,9 C 68 % 1003,3 hPa 0,0 mm 7,3 km/h (2 Bft) W-SW 254 0 min 0 UV-I 38 W/m 11,3 km/h (2 Bft)
01.04.2010 08:10 4,9 C 67 % 1003,2 hPa 0,0 mm 8,0 km/h (2 Bft) SW 225 0 min 0 UV-I 53 W/m 22,5 km/h (4 Bft)
01.04.2010 08:20 4,9 C 67 % 1003,4 hPa 0,0 mm 6,4 km/h (2 Bft) SW 225 0 min 0 UV-I 33 W/m 22,5 km/h (4 Bft)
01.04.2010 08:30 4,9 C 65 % 1003,5 hPa 0,0 mm 9,7 km/h (2 Bft) SW 225 0 min 0 UV-I 54 W/m 24,1 km/h (4 Bft)
01.04.2010 08:40 5,0 C 65 % 1003,7 hPa 0,0 mm 8,0 km/h (2 Bft) SW 225 0 min 0 UV-I 93 W/m 29,0 km/h (5 Bft)
01.04.2010 08:50 5,1 C 64 % 1003,8 hPa 0,0 mm 12,9 km/h (3 Bft) SW 225 0 min 0 UV-I 91 W/m 32,2 km/h (5 Bft)
01.04.2010 09:00 5,1 C 64 % 1003,9 hPa 0,0 mm 11,3 km/h (2 Bft) SW 225 0 min 0 UV-I 86 W/m 25,7 km/h (4 Bft)
01.04.2010 09:10 5,1 C 63 % 1004,0 hPa 0,0 mm 8,0 km/h (2 Bft) SW 225 0 min 0 UV-I 104 W/m 24,1 km/h (4 Bft)
01.04.2010 09:20 5,1 C 63 % 1004,2 hPa 0,0 mm 8,0 km/h (2 Bft) SW 225 0 min 1 UV-I 123 W/m 19,3 km/h (3 Bft)
01.04.2010 09:30 5,2 C 63 % 1004,3 hPa 0,0 mm 9,7 km/h (2 Bft) SW 225 0 min 1 UV-I 160 W/m 20,9 km/h (4 Bft)
01.04.2010 09:40 5,3 C 63 % 1004,5 hPa 0,0 mm 9,7 km/h (2 Bft) SW 225 0 min 1 UV-I 206 W/m 27,4 km/h (4 Bft)
01.04.2010 09:50 5,4 C 64 % 1004,6 hPa 0,0 mm 8,0 km/h (2 Bft) SW 225 0 min 1 UV-I 158 W/m 25,7 km/h (4 Bft)
01.04.2010 10:00 5,4 C 62 % 1004,7 hPa 0,0 mm 12,9 km/h (3 Bft) S-SW 202 0 min 1 UV-I 125 W/m 30,6 km/h (5 Bft)
01.04.2010 10:10 5,4 C 62 % 1004,9 hPa 0,0 mm 9,7 km/h (2 Bft) SW 225 0 min 1 UV-I 167 W/m 38,6 km/h (5 Bft)
01.04.2010 10:20 5,6 C 61 % 1005,0 hPa 0,0 mm 12,9 km/h (3 Bft) SW 225 10 min 2 UV-I 547 W/m 32,2 km/h (5 Bft)
01.04.2010 10:30 6,1 C 60 % 1005,2 hPa 0,0 mm 12,9 km/h (3 Bft) SW 225 10 min 2 UV-I 701 W/m 37,0 km/h (5 Bft)
01.04.2010 10:40 6,2 C 60 % 1005,4 hPa 0,0 mm 11,3 km/h (2 Bft) SW 225 10 min 1 UV-I 287 W/m 24,1 km/h (4 Bft)
01.04.2010 10:50 5,8 C 62 % 1005,6 hPa 0,0 mm 12,9 km/h (3 Bft) W-SW 247 0 min 1 UV-I 141 W/m 30,6 km/h (5 Bft)
01.04.2010 11:00 5,8 C 62 % 1005,8 hPa 0,0 mm 11,3 km/h (2 Bft) W-SW 247 10 min 3 UV-I 633 W/m 24,1 km/h (4 Bft)
01.04.2010 11:10 6,6 C 58 % 1005,9 hPa 0,0 mm 11,3 km/h (2 Bft) W-SW 247 10 min 3 UV-I 745 W/m 22,5 km/h (4 Bft)
01.04.2010 11:20 6,9 C 58 % 1006,2 hPa 0,0 mm 14,5 km/h (3 Bft) S-SW 202 0 min 2 UV-I 304 W/m 37,0 km/h (5 Bft)
01.04.2010 11:30 6,3 C 67 % 1006,4 hPa 0,0 mm 12,9 km/h (3 Bft) W-SW 247 0 min 1 UV-I 239 W/m 33,8 km/h (5 Bft)
01.04.2010 11:40 5,3 C 71 % 1006,7 hPa 0,0 mm 8,0 km/h (2 Bft) W 270 0 min 2 UV-I 179 W/m 20,9 km/h (4 Bft)
01.04.2010 11:50 5,8 C 64 % 1006,8 hPa 0,0 mm 11,3 km/h (2 Bft) W-SW 247 10 min 3 UV-I 872 W/m 24,1 km/h (4 Bft)
01.04.2010 12:00 6,9 C 61 % 1006,8 hPa 0,0 mm 14,5 km/h (3 Bft) W-SW 247 10 min 3 UV-I 849 W/m 33,8 km/h (5 Bft)
01.04.2010 12:10 7,4 C 59 % 1007,0 hPa 0,0 mm 9,7 km/h (2 Bft) W-SW 247 10 min 4 UV-I 835 W/m 27,4 km/h (4 Bft)
01.04.2010 12:20 7,5 C 56 % 1007,1 hPa 0,0 mm 14,5 km/h (3 Bft) S-SW 202 10 min 4 UV-I 483 W/m 35,4 km/h (5 Bft)
01.04.2010 12:30 7,4 C 59 % 1007,2 hPa 0,0 mm 12,9 km/h (3 Bft) W-SW 247 0 min 2 UV-I 316 W/m 32,2 km/h (5 Bft)
01.04.2010 12:40 6,9 C 68 % 1007,3 hPa 0,0 mm 12,9 km/h (3 Bft) W-SW 247 0 min 1 UV-I 72 W/m 37,0 km/h (5 Bft)
01.04.2010 12:50 5,2 C 80 % 1007,5 hPa 0,0 mm 11,3 km/h (2 Bft) W 270 10 min 3 UV-I 759 W/m 29,0 km/h (5 Bft)
01.04.2010 13:00 5,3 C 77 % 1007,7 hPa 0,3 mm 12,9 km/h (3 Bft) SW 225 10 min 4 UV-I 807 W/m 29,0 km/h (5 Bft)
01.04.2010 13:10 6,5 C 70 % 1007,7 hPa 0,3 mm 11,3 km/h (2 Bft) W-SW 247 10 min 4 UV-I 807 W/m 27,4 km/h (4 Bft)
01.04.2010 13:20 7,3 C 65 % 1007,8 hPa 0,0 mm 14,5 km/h (3 Bft) W-SW 247 10 min 4 UV-I 779 W/m 30,6 km/h (5 Bft)
01.04.2010 13:30 7,3 C 65 % 1007,9 hPa 0,0 mm 16,1 km/h (3 Bft) W-SW 247 10 min 4 UV-I 733 W/m 37,0 km/h (5 Bft)
01.04.2010 13:40 7,6 C 63 % 1007,9 hPa 0,0 mm 12,9 km/h (3 Bft) SW 225 10 min 4 UV-I 828 W/m 30,6 km/h (5 Bft)
01.04.2010 13:50 7,8 C 62 % 1008,2 hPa 0,0 mm 9,7 km/h (2 Bft) SW 225 0 min 2 UV-I 234 W/m 22,5 km/h (4 Bft)
01.04.2010 14:00 7,2 C 66 % 1008,5 hPa 0,0 mm 16,1 km/h (3 Bft) SW 225 0 min 1 UV-I 123 W/m 38,6 km/h (5 Bft)
01.04.2010 14:10 5,6 C 75 % 1008,5 hPa 0,3 mm 9,7 km/h (2 Bft) S-SW 202 0 min 1 UV-I 165 W/m 38,6 km/h (5 Bft)
01.04.2010 14:20 4,8 C 76 % 1008,6 hPa 0,3 mm 6,4 km/h (2 Bft) SW 225 10 min 3 UV-I 647 W/m 19,3 km/h (3 Bft)
01.04.2010 14:30 5,9 C 75 % 1008,6 hPa 0,0 mm 6,4 km/h (2 Bft) SW 225 10 min 3 UV-I 506 W/m 17,7 km/h (3 Bft)
01.04.2010 14:40 6,9 C 69 % 1008,7 hPa 0,0 mm 6,4 km/h (2 Bft) SW 225 10 min 3 UV-I 608 W/m 20,9 km/h (4 Bft)
01.04.2010 14:50 7,5 C 65 % 1008,7 hPa 0,0 mm 16,1 km/h (3 Bft) SW 225 10 min 3 UV-I 686 W/m 40,2 km/h (6 Bft)
01.04.2010 15:00 7,3 C 64 % 1008,8 hPa 0,0 mm 11,3 km/h (2 Bft) W-SW 247 10 min 3 UV-I 717 W/m 29,0 km/h (5 Bft)
01.04.2010 15:10 7,7 C 60 % 1008,9 hPa 0,0 mm 16,1 km/h (3 Bft) W-SW 247 10 min 3 UV-I 756 W/m 33,8 km/h (5 Bft)
01.04.2010 15:20 7,8 C 61 % 1008,9 hPa 0,0 mm 12,9 km/h (3 Bft) W-SW 247 10 min 3 UV-I 547 W/m 30,6 km/h (5 Bft)
01.04.2010 15:30 7,7 C 60 % 1009,0 hPa 0,0 mm 11,3 km/h (2 Bft) SW 225 10 min 3 UV-I 694 W/m 25,7 km/h (4 Bft)
01.04.2010 15:40 7,9 C 60 % 1009,1 hPa 0,0 mm 12,9 km/h (3 Bft) SW 225 10 min 2 UV-I 624 W/m 29,0 km/h (5 Bft)
01.04.2010 15:50 7,6 C 60 % 1009,1 hPa 0,0 mm 12,9 km/h (3 Bft) S-SW 202 10 min 2 UV-I 661 W/m 30,6 km/h (5 Bft)
01.04.2010 16:00 7,8 C 61 % 1009,3 hPa 0,0 mm 21,4 km/h (4 Bft) W-NW 284 10 min 2 UV-I 530 W/m 33,8 km/h (5 Bft)
01.04.2010 16:10 7,9 C 62 % 1009,6 hPa 0,0 mm 14,5 km/h (3 Bft) SW 225 10 min 2 UV-I 635 W/m 37,0 km/h (5 Bft)
01.04.2010 16:20 7,1 C 60 % 1009,6 hPa 0,0 mm 11,3 km/h (2 Bft) W-SW 247 10 min 2 UV-I 619 W/m 29,0 km/h (5 Bft)
01.04.2010 16:30 7,4 C 61 % 1009,7 hPa 0,0 mm 11,3 km/h (2 Bft) SW 225 10 min 2 UV-I 585 W/m 30,6 km/h (5 Bft)
01.04.2010 16:40 7,7 C 64 % 1009,8 hPa 0,0 mm 9,7 km/h (2 Bft) W-SW 247 10 min 2 UV-I 619 W/m 32,2 km/h (5 Bft)
01.04.2010 16:50 7,9 C 62 % 1009,8 hPa 0,0 mm 12,9 km/h (3 Bft) SW 225 10 min 2 UV-I 635 W/m 32,2 km/h (5 Bft)
01.04.2010 17:00 7,9 C 64 % 1010,0 hPa 0,0 mm 11,3 km/h (2 Bft) SW 225 10 min 2 UV-I 615 W/m 25,7 km/h (4 Bft)
01.04.2010 17:10 7,2 C 70 % 1010,1 hPa 0,0 mm 9,7 km/h (2 Bft) SW 225 10 min 1 UV-I 294 W/m 22,5 km/h (4 Bft)
01.04.2010 17:20 7,2 C 67 % 1010,0 hPa 0,0 mm 6,4 km/h (2 Bft) S-SW 202 10 min 1 UV-I 483 W/m 29,0 km/h (5 Bft)
01.04.2010 17:30 7,8 C 65 % 1010,0 hPa 0,0 mm 8,0 km/h (2 Bft) SW 225 10 min 1 UV-I 376 W/m 24,1 km/h (4 Bft)
01.04.2010 17:40 7,3 C 66 % 1010,3 hPa 0,0 mm 8,6 km/h (2 Bft) SW 234 0 min 0 UV-I 30 W/m 27,4 km/h (4 Bft)
01.04.2010 17:50 6,8 C 75 % 1010,1 hPa 0,3 mm 14,5 km/h (3 Bft) W-SW 247 10 min 1 UV-I 207 W/m 40,2 km/h (6 Bft)
01.04.2010 18:00 5,7 C 79 % 1010,0 hPa 0,0 mm 8,0 km/h (2 Bft) W-SW 247 10 min 1 UV-I 165 W/m 24,1 km/h (4 Bft)
01.04.2010 18:10 5,6 C 80 % 1010,0 hPa 0,0 mm 6,4 km/h (2 Bft) SW 225 0 min 1 UV-I 144 W/m 17,7 km/h (3 Bft)
01.04.2010 18:20 5,4 C 80 % 1010,8 hPa 0,3 mm 9,7 km/h (2 Bft) W-SW 247 0 min 0 UV-I 120 W/m 30,6 km/h (5 Bft)
01.04.2010 18:30 5,2 C 77 % 1011,4 hPa 0,0 mm 8,0 km/h (2 Bft) SW 225 0 min 0 UV-I 93 W/m 25,7 km/h (4 Bft)
01.04.2010 18:40 5,2 C 77 % 1011,4 hPa 0,0 mm 9,7 km/h (2 Bft) SW 225 0 min 0 UV-I 91 W/m 25,7 km/h (4 Bft)
01.04.2010 18:50 5,2 C 78 % 1011,0 hPa 0,0 mm 11,3 km/h (2 Bft) SW 225 10 min 0 UV-I 111 W/m 30,6 km/h (5 Bft)
01.04.2010 19:00 4,9 C 79 % 1009,1 hPa 0,0 mm 8,0 km/h (2 Bft) S-SW 202 0 min 0 UV-I 69 W/m 20,9 km/h (4 Bft)
01.04.2010 19:10 4,7 C 78 % 1009,1 hPa 0,0 mm 8,0 km/h (2 Bft) SW 225 10 min 0 UV-I 90 W/m 17,7 km/h (3 Bft)
01.04.2010 19:20 4,6 C 78 % 1009,1 hPa 0,0 mm 4,8 km/h (1 Bft) SW 225 10 min 0 UV-I 60 W/m 19,3 km/h (3 Bft)
01.04.2010 19:30 4,4 C 79 % 1010,0 hPa 0,0 mm 3,2 km/h (1 Bft) SW 225 10 min 0 UV-I 37 W/m 16,1 km/h (3 Bft)
01.04.2010 19:40 4,3 C 79 % 1010,0 hPa 0,0 mm 1,6 km/h (1 Bft) S-SW 202 10 min 0 UV-I 28 W/m 8,0 km/h (2 Bft)
01.04.2010 19:50 4,2 C 79 % 1010,1 hPa 0,0 mm 1,6 km/h (1 Bft) S-SW 202 0 min 0 UV-I 19 W/m 9,7 km/h (2 Bft)
01.04.2010 20:00 4,1 C 80 % 1010,2 hPa 0,0 mm 1,6 km/h (1 Bft) S-SW 202 0 min 0 UV-I 9 W/m 9,7 km/h (2 Bft)
01.04.2010 20:10 4,0 C 79 % 1010,0 hPa 0,0 mm 1,6 km/h (1 Bft) S-SW 202 0 min 0 UV-I 0 W/m 9,7 km/h (2 Bft)
01.04.2010 20:20 3,9 C 80 % 1010,0 hPa 0,0 mm 3,2 km/h (1 Bft) SW 225 0 min 0 UV-I 0 W/m 11,3 km/h (2 Bft)
01.04.2010 20:30 3,9 C 79 % 1009,9 hPa 0,0 mm 4,8 km/h (1 Bft) W-SW 247 0 min 0 UV-I 0 W/m 20,9 km/h (4 Bft)
01.04.2010 20:40 4,1 C 79 % 1011,6 hPa 0,0 mm 3,2 km/h (1 Bft) S-SW 202 0 min 0 UV-I 0 W/m 8,0 km/h (2 Bft)
01.04.2010 20:50 4,0 C 79 % 1011,5 hPa 0,0 mm 1,6 km/h (1 Bft) S-SW 202 0 min 0 UV-I 0 W/m 6,4 km/h (2 Bft)
01.04.2010 21:00 3,8 C 80 % 1011,4 hPa 0,0 mm 0,0 km/h (0 Bft) S-SW 202 0 min 0 UV-I 0 W/m 1,6 km/h (1 Bft)
01.04.2010 21:10 3,7 C 81 % 1011,5 hPa 0,0 mm 0,0 km/h (0 Bft) S-SW 202 0 min 0 UV-I 0 W/m 3,2 km/h (1 Bft)
01.04.2010 21:20 3,6 C 81 % 1011,5 hPa 0,0 mm 0,0 km/h (0 Bft) S-SW 202 0 min 0 UV-I 0 W/m 4,8 km/h (1 Bft)
01.04.2010 21:30 3,6 C 81 % 1011,4 hPa 0,0 mm 0,0 km/h (0 Bft) S-SW 202 0 min 0 UV-I 0 W/m 4,8 km/h (1 Bft)
01.04.2010 21:40 3,4 C 81 % 1011,5 hPa 0,0 mm 0,0 km/h (0 Bft) S-SW 202 0 min 0 UV-I 0 W/m 3,2 km/h (1 Bft)
01.04.2010 21:50 3,2 C 82 % 1011,8 hPa 0,0 mm 0,0 km/h (0 Bft) S 180 0 min 0 UV-I 0 W/m 1,6 km/h (1 Bft)
01.04.2010 22:00 2,8 C 82 % 1011,9 hPa 0,0 mm 0,0 km/h (0 Bft) S 180 0 min 0 UV-I 0 W/m 1,6 km/h (1 Bft)
01.04.2010 22:10 2,4 C 84 % 1012,3 hPa 0,0 mm 0,0 km/h (0 Bft) S 180 0 min 0 UV-I 0 W/m 1,6 km/h (1 Bft)
01.04.2010 22:20 2,4 C 84 % 1013,6 hPa 0,0 mm 0,0 km/h (0 Bft) N 0 0 min 0 UV-I 0 W/m 0,0 km/h (0 Bft)
01.04.2010 22:30 2,6 C 84 % 1014,1 hPa 0,0 mm 0,0 km/h (0 Bft) S 180 0 min 0 UV-I 0 W/m 1,6 km/h (1 Bft)
01.04.2010 22:40 2,4 C 84 % 1014,2 hPa 0,0 mm 0,0 km/h (0 Bft) S 180 0 min 0 UV-I 0 W/m 1,6 km/h (1 Bft)
01.04.2010 22:50 2,3 C 84 % 1013,3 hPa 0,0 mm 0,0 km/h (0 Bft) S 180 0 min 0 UV-I 0 W/m 1,6 km/h (1 Bft)
01.04.2010 23:00 2,3 C 84 % 1014,4 hPa 0,0 mm 0,0 km/h (0 Bft) S 180 0 min 0 UV-I 0 W/m 1,6 km/h (1 Bft)
01.04.2010 23:10 2,2 C 84 % 1014,4 hPa 0,0 mm 0,0 km/h (0 Bft) S 180 0 min 0 UV-I 0 W/m 1,6 km/h (1 Bft)
01.04.2010 23:20 2,2 C 83 % 1014,5 hPa 0,0 mm 0,0 km/h (0 Bft) S 180 0 min 0 UV-I 0 W/m 1,6 km/h (1 Bft)
01.04.2010 23:30 1,8 C 85 % 1014,1 hPa 0,0 mm 0,0 km/h (0 Bft) N 0 0 min 0 UV-I 0 W/m 0,0 km/h (0 Bft)
01.04.2010 23:40 1,6 C 85 % 1013,6 hPa 0,0 mm 0,0 km/h (0 Bft) S 180 0 min 0 UV-I 0 W/m 1,6 km/h (1 Bft)
01.04.2010 23:50 1,6 C 85 % 1013,6 hPa 0,0 mm 0,0 km/h (0 Bft) N 0 0 min 0 UV-I 0 W/m 0,0 km/h (0 Bft)
_ Min-Zeit 23:40 12:20 03:10 - 21:00 - - - - - 22:20
Minimum _ 1,5 C 56 % 1000,4 hPa - 0,0 km/h (0 Bft) - - - - - 0,0 km/h (0 Bft)
_ Max-Zeit 13:50 23:30 23:20 13:00 16:00 - - 10:20 13:40 11:50 14:50
Maximum _ 8,1 C 85 % 1014,5 hPa 0,3 mm 21,4 km/h
W-NW (4 Bft)
- - 10 min 4 UV-I 872 W/m 40,2 km/h
SW (6 Bft)
Durchschnitt _ 5,3 C 71 % 1006,4 hPa #1,5 mm 7,5 km/h (2 Bft) SW - #7:00 h 2 UV-I 356 W/m 21,0 km/h (4 Bft)